Regional Weather Roundup
Issued by NWS State College, PA

Home | Current Version | Previous Version | Text Only | Print | Product List | Glossary On
Versions: 1 2 3 4 5 6 7 8 9 10 11 12 13 14 15 16 17 18 19 20 21 22 23 24 25 26 27 28 29 30 31 32 33 34 35 36 37 38 39 40 41 42 43 44 45 46 47 48 49 50
000
ASUS41 KCTP 241903
RWRCTP

REGIONAL WEATHER ROUNDUP
NATIONAL WEATHER SERVICE STATE COLLEGE PA
300 PM EDT THU APR 24 2014

Note: "fair" indicates few or no clouds below 12,000 feet with no
significant weather and/or obstructions to visibility.

* = STATION THAT DOES NOT REPORT PRECIPITATION /E.G. RAIN...SNOW...ETC/
    THUNDER OR FOG.

PAZ002>004-007>009-013>016-020>023-029>032-242000-
WESTERN PENNSYLVANIA

CITY           SKY/WX    TMP DP  RH WIND       PRES   REMARKS
ERIE           SUNNY     49  17  28 N8        30.11F
MEADVILLE      SUNNY     53  17  24 VRB3      30.06F
FRANKLIN*      SUNNY     54  18  24 CALM      30.08F
NEW CASTLE     FAIR      54  20  26 CALM      30.08F
BEAVER COUNTY  SUNNY     55  19  24 CALM      30.06F
BUTLER*        SUNNY     54  19  26 NE7       30.09F
PITTSBURGH INT PTSUNNY   55  16  21 VRB3      30.07F
PITTSBURGH     SUNNY     58  17  20 VRB5      30.05F
INDIANA*       SUNNY     54  21  28 NW8       30.06F
LATROBE        SUNNY     54  21  28 CALM      30.08F
WASHINGTON CO* SUNNY     55  21  26 CALM      30.08F
$$

PAZ004>006-010>012-017>019-024>028-033>037-041-042-045-046-049>053-242000-
CENTRAL PENNSYLVANIA

CITY           SKY/WX    TMP DP  RH WIND       PRES   REMARKS
BRADFORD       SUNNY     51  10  19 NE7       30.04F
DUBOIS         SUNNY     55  12  18 NW7       30.03F
CLEARFIELD     SUNNY     57  11  16 VRB7      30.03F
JOHNSTOWN      SUNNY     51  16  24 W8        30.03F
ALTOONA        SUNNY     56  18  22 VRB6      30.03F
STATE COLLEGE  SUNNY     59  10  14 N12       30.01F
WILLIAMSPORT   SUNNY     60  12  15 NW18G28   30.01F
SELINSGROVE    SUNNY     62  17  17 NW6G20    30.02F
FT INDIANTOWN  SUNNY     60  13  16 NW10G20   30.01F
CAPITAL CITY   SUNNY     60  16  18 N13       30.02F
HARRISBURG     MOSUNNY   65  17  15 NW14G23   30.01F
YORK           SUNNY     59  20  22 NW10G21   30.02F
$$

PAZ038>040-043-044-047-048-054-055-060>062-067>071-242000-
EASTERN PENNSYLVANIA

CITY           SKY/WX    TMP DP  RH WIND       PRES   REMARKS
SCRANTON       SUNNY     54  16  22 NW22G32   29.99F
MOUNT POCONO   SUNNY     51   9  18 N12G30    29.95S
ALLENTOWN      SUNNY     60  15  17 NW21G28   29.97S
QUAKERTOWN*    CLEAR     57  18  21 W13G23    29.97F
READING        SUNNY     60  19  20 NW18G29   29.99F
LANCASTER      SUNNY     59  20  22 NW14G22   30.00F
COATESVILLE    CLEAR     57  18  21 NW17G24   30.00F
POTTSTOWN      SUNNY     59  20  22 NW21      29.99F
BLUE BELL      SUNNY     61  16  17 NW5G20    29.96F
DOYLESTOWN     SUNNY     59  17  19 NW15G26   29.95F
WILLOW GROVE   NOT AVBL
NORTH PHILA    SUNNY     62  16  16 NW16G24   29.97F
PHILADELPHIA   SUNNY     60  13  15 W17G29    29.99S
$$



USA.gov is the U.S. government's official web portal to all federal, state and local government web resources and services.